カタログに戻る

CZ-6A DEB

運用中PO
NORAD 54638·DEBRIS·🇨🇳 China

打ち上げ Nov 11, 2022 から Taiyuan Satellite Launch Center

Loading…

次のパス (今後24時間)

TLE

最新Source: Space-Track

元期: Sep 14, 2026, 05:30 UTC

1 54638U 22151PQ  26257.22961206  .00014334  00000-0  14436-2 0  9992
2 54638  98.6281 345.1507 0050430 315.5444  44.1729 14.90336861203895

AllMySatでCZ-6A DEBをリアルタイム追跡

Download on the App Store